Manistee, MI

5:33 PM EDT on August 19, 2017 (GMT -0400)
Manistee County-Blacker

Weather History for KMBL - November, 2011

Change the Weather History Date:

Saturday, November 5, 2011

  Actual Average Record
Temperature  
Mean Temperature 40 °F -  
Max Temperature 53 °F 49 °F 69 °F (1975)
Min Temperature 28 °F 34 °F 18 °F (1951)
Degree Days  
Heating Degree Days 24    
Moisture  
Dew Point 28 °F    
Average Humidity 66    
Maximum Humidity 93    
Minimum Humidity 35    
Precipitation  
Precipitation 0.00 in - - ()
Sea Level Pressure  
Sea Level Pressure 30.23 in    
Wind  
Wind Speed 6 mph (SE)    
Max Wind Speed 10 mph    
Max Gust Speed 18 mph    
Visibility 9 miles    
Events      
Averages and records for this station are not official NWS values.
T = Trace of Precipitation, MM = Missing Value Source: NWS Daily Summary

Daily Weather History Graph

Daily Weather History Graph

Search for Another Location

Airport or City:

Trip Planner

Search our weather history database for the weather conditions in past years. The results will help you decide how hot, cold, wet, or windy it might be!

Date:

Astronomy

Nov. 05, 2011 Rise Set
Actual Time 8:26 AM EDT 6:29 PM EDT
Civil Twilight 7:56 AM EDT 7:00 PM EDT
Nautical Twilight 7:22 AM EDT 7:34 PM EDT
Astronomical Twilight 6:48 AM EDT 8:08 PM EDT
Moon 3:55 PM EDT (11/5) 3:26 AM EDT (11/5)
Length of Visible Light 11h 03m
Length of Day
10h 02m
Waxing Gibbous, 78% of the Moon is Illuminated
Nov 5
Waxing Gibbous
Nov 10
Full
Nov 18
Last Quarter
Nov 25
New
Dec 2
First Quarter

Hourly Weather History & Observations

Time (EDT) Temp. Windchill Dew Point Humidity Pressure Visibility Wind Dir Wind Speed Gust Speed Precip Events Conditions
12:15 AM 30.2 °F 26.7 °F 28.4 °F 93% 30.30 in 10.0 mi East 3.5 mph - N/A   Clear
12:55 AM 30.2 °F 25.4 °F 28.4 °F 93% 30.30 in 10.0 mi East 4.6 mph - N/A   Clear
1:15 AM 30.2 °F 26.7 °F 28.4 °F 93% 30.31 in 10.0 mi East 3.5 mph - N/A   Clear
1:35 AM 30.2 °F 26.7 °F 26.6 °F 86% 30.31 in 10.0 mi East 3.5 mph - N/A   Clear
1:55 AM 30.2 °F 25.4 °F 28.4 °F 93% 30.32 in 10.0 mi East 4.6 mph - N/A   Clear
2:15 AM 28.4 °F 23.3 °F 26.6 °F 93% 30.31 in 10.0 mi East 4.6 mph - N/A   Clear
2:35 AM 28.4 °F 23.3 °F 26.6 °F 93% 30.31 in 10.0 mi East 4.6 mph - N/A   Clear
2:55 AM 28.4 °F 23.3 °F 26.6 °F 93% 30.31 in 10.0 mi East 4.6 mph - N/A   Clear
3:55 AM 30.2 °F 23.4 °F 28.4 °F 93% 30.31 in 10.0 mi ESE 6.9 mph - N/A   Clear
4:15 AM 30.2 °F 24.3 °F 26.6 °F 86% 30.30 in 10.0 mi ESE 5.8 mph - N/A   Clear
5:15 AM 33.8 °F 30.8 °F 28.4 °F 81% 30.30 in 7.0 mi SE 3.5 mph - N/A   Clear
5:35 AM 33.8 °F 28.6 °F 28.4 °F 81% 30.30 in 5.0 mi ESE 5.8 mph - N/A   Clear
5:55 AM 33.8 °F 28.6 °F 28.4 °F 81% 30.29 in 5.0 mi ESE 5.8 mph - N/A   Clear
6:35 AM 33.8 °F 29.6 °F 28.4 °F 81% 30.30 in 5.0 mi ESE 4.6 mph - N/A   Clear
6:55 AM 30.2 °F 24.3 °F 28.4 °F 93% 30.30 in 4.0 mi ESE 5.8 mph - N/A   Clear
7:35 AM 30.2 °F 26.7 °F 26.6 °F 86% 30.31 in 3.0 mi ESE 3.5 mph - N/A   Clear
7:55 AM 30.2 °F 25.4 °F 26.6 °F 86% 30.31 in 3.0 mi ESE 4.6 mph - N/A   Clear
8:15 AM 28.4 °F 23.3 °F 26.6 °F 93% 30.30 in 2.5 mi ESE 4.6 mph - N/A   Clear
8:35 AM 30.2 °F 24.3 °F 26.6 °F 86% 30.31 in 2.0 mi ESE 5.8 mph - N/A   Clear
8:55 AM 30.2 °F 24.3 °F 28.4 °F 93% 30.31 in 2.0 mi ESE 5.8 mph - N/A   Clear
9:15 AM 33.8 °F 27.7 °F 28.4 °F 81% 30.30 in 2.5 mi SE 6.9 mph - N/A   Clear
9:35 AM 33.8 °F 28.6 °F 30.2 °F 87% 30.30 in 6.0 mi SE 5.8 mph - N/A   Clear
9:55 AM 35.6 °F 29.9 °F 30.2 °F 81% 30.30 in 9.0 mi SE 6.9 mph - N/A   Clear
10:15 AM 35.6 °F 31.7 °F 30.2 °F 81% 30.30 in 10.0 mi SE 4.6 mph - N/A   Clear
10:35 AM 39.2 °F 37.0 °F 32.0 °F 75% 30.29 in 10.0 mi SSE 3.5 mph - N/A   Clear
10:55 AM 41.0 °F 35.8 °F 33.8 °F 76% 30.29 in 10.0 mi SSE 8.1 mph - N/A   Clear
11:55 AM 44.6 °F 39.2 °F 33.8 °F 66% 30.28 in 10.0 mi SSE 10.4 mph 17.3 mph N/A   Clear
12:35 PM 48.2 °F - 33.8 °F 58% 30.27 in 10.0 mi SSW 10.4 mph - N/A   Clear
12:55 PM 48.2 °F - 33.8 °F 58% 30.25 in 10.0 mi South 8.1 mph 18.4 mph N/A   Clear
1:15 PM 48.2 °F - 33.8 °F 58% 30.25 in 10.0 mi SSW 10.4 mph 18.4 mph N/A   Clear
2:55 PM 51.8 °F - 28.4 °F 41% 30.19 in 10.0 mi SSE 9.2 mph - N/A   Clear
3:15 PM 53.6 °F - 28.4 °F 38% 30.19 in 10.0 mi South 10.4 mph - N/A   Clear
3:35 PM 53.6 °F - 28.4 °F 38% 30.18 in 10.0 mi SE 9.2 mph - N/A   Clear
3:55 PM 53.6 °F - 28.4 °F 38% 30.17 in 10.0 mi South 10.4 mph - N/A   Clear
4:15 PM 53.6 °F - 28.4 °F 38% 30.17 in 10.0 mi South 10.4 mph - N/A   Clear
4:35 PM 53.6 °F - 26.6 °F 35% 30.16 in 10.0 mi South 6.9 mph - N/A   Clear
4:55 PM 53.6 °F - 28.4 °F 38% 30.16 in 10.0 mi South 10.4 mph 16.1 mph N/A   Clear
5:15 PM 53.6 °F - 26.6 °F 35% 30.15 in 10.0 mi SSE 6.9 mph 16.1 mph N/A   Clear
5:35 PM 51.8 °F - 26.6 °F 38% 30.15 in 10.0 mi South 8.1 mph - N/A   Clear
5:55 PM 51.8 °F - 28.4 °F 41% 30.15 in 10.0 mi SSE 5.8 mph - N/A   Clear
6:15 PM 50.0 °F - 28.4 °F 43% 30.15 in 10.0 mi SSE 4.6 mph - N/A   Clear
7:15 PM 48.2 °F - 28.4 °F 46% 30.14 in 10.0 mi SSE 3.5 mph - N/A   Clear
7:55 PM 42.8 °F 40.1 °F 28.4 °F 57% 30.13 in 10.0 mi ESE 4.6 mph - N/A   Clear
8:15 PM 42.8 °F 39.3 °F 28.4 °F 57% 30.12 in 10.0 mi ESE 5.8 mph - N/A   Clear
8:35 PM 44.6 °F 42.2 °F 28.4 °F 53% 30.12 in 10.0 mi SE 4.6 mph - N/A   Clear
8:55 PM 44.6 °F 41.4 °F 28.4 °F 53% 30.11 in 10.0 mi SE 5.8 mph - N/A   Clear
9:15 PM 44.6 °F 42.2 °F 28.4 °F 53% 30.11 in 10.0 mi SE 4.6 mph - N/A   Clear
9:55 PM 44.6 °F 41.4 °F 28.4 °F 53% 30.11 in 10.0 mi SE 5.8 mph - N/A   Clear
10:15 PM 42.8 °F 39.3 °F 26.6 °F 53% 30.11 in 10.0 mi SE 5.8 mph - N/A   Clear
10:35 PM 44.6 °F 42.2 °F 26.6 °F 49% 30.11 in 10.0 mi SE 4.6 mph - N/A   Clear
10:55 PM 44.6 °F 40.7 °F 26.6 °F 49% 30.11 in 10.0 mi SE 6.9 mph - N/A   Clear
11:15 PM 46.4 °F 41.9 °F 24.8 °F 43% 30.10 in 10.0 mi SE 9.2 mph - N/A   Clear
11:35 PM 46.4 °F 42.4 °F 24.8 °F 43% 30.10 in 10.0 mi SSE 8.1 mph - N/A   Clear
11:55 PM 46.4 °F 41.9 °F 24.8 °F 43% 30.09 in 10.0 mi SSE 9.2 mph - N/A   Clear